Location: Solstice Park, West Seattle
(47.5363°N, 122.3905°W)
Time: 08:43:44
(UTC-07:00)

ISS - Pass Details

Date: 13 May 2021
Orbit: 417 x 422 km, 51.6° (Epoch: 18 June)

Event Time Altitude Azimuth Distance (km) Brightness Sun altitude
Rises 03:55:15 0° 294° (WNW) 2,375 -0.1 -13.8°
Reaches altitude 10° 03:57:21 10° 294° (WNW) 1,509 -1.1 -13.6°
Maximum altitude 04:00:45 86° 21° (NNE) 428 -3.7 -13.2°
Drops below altitude 10° 04:04:08 10° 113° (ESE) 1,506 -0.7 -12.8°
Sets 04:06:14 0° 114° (ESE) 2,369 0.3 -12.6°
